map of SSN home
SSN - Airport
Location
City:  Seongnam, Republic of Korea (South Korea)
Name:Seoul AB
ICAO:RKSM
IATA:SSN

Details
Type:Airport (Aerodrome, Airfield)
Use:Military, International (customs port of entry)
Latitude:37°26'45"N (37.445833)
Longitude:127°06'50"E (127.113889)
Datum:WGS 1984
Elevation:92 ft (28 m)
Variation:8.48°W (WMM2015 magnetic declination)
-0.07° annual change
Runways:2
Longest:9700 × 150 ft (2957 × 45.5 m), paved

Time
Time Zone:UTC+9
Local Time:

Weather
METAR:RKSM 211000Z 25005KT 9999 SCT030 03/M03 A3011
TAF:RKSM 210500Z 2106/2212 27006G16KT 9999 BKN030
BECMG 2107/2108 30006G16KT 9999 SCT030
BECMG 2109/2110 30006KT 9999 FEW030 TNM07/2121Z TX06/2206Z

Related Locations
Nearby:
Farthest:SUPE: 12225 mi / 19674 km
Punta el Este [El Jagüel Airport], MA, UY

Find:

   beyond  
but within

Other Information
Maps:
NOTAMs:
Links:
Sources:

  
  • flag of Republic of Korea (South Korea)
  

Sectional Chart

Flight Planning
at skyvector.com

Satellite Image

Google Maps Satellite view

 

Copyright © 2004-2019 Karl L. Swartz. All rights reserved.
The Great Circle Mapper name and logo are trademarks of the Great Circle Mapper.
All other trademarks mentioned herein belong to their respective owners.
Please see credits for attibutions and further copyright information.

  Follow gcmap on Facebook Follow gcmap on Twitter Follow gcmap on Google+ GCmap on LinkedIn

hCard Microformat

Geo Microformat